Fryeburg, ME

9:02 AM EST on December 07, 2019 (GMT -0500)
Eastern Slopes Regional

Weather History for KIZG - October, 2019

Change the Weather History Date:

Wednesday, October 23, 2019

  Actual Average Record
Temperature  
Mean Temperature 54 °F -  
Max Temperature 64 °F 53 °F 73 °F (2007)
Min Temperature 44 °F 29 °F 18 °F (1997)
Degree Days  
Heating Degree Days 12    
Growing Degree Days 4 (Base 50)    
Moisture  
Dew Point 46 °F    
Average Humidity 84    
Maximum Humidity 97    
Minimum Humidity 43    
Precipitation  
Precipitation 1.34 in - - ()
Sea Level Pressure  
Sea Level Pressure 29.86 in    
Wind  
Wind Speed 5 mph (NW)    
Max Wind Speed 14 mph    
Max Gust Speed 24 mph    
Visibility 6 miles    
Events Rain    
Averages and records for this station are not official NWS values.
T = Trace of Precipitation, MM = Missing Value Source: NWS Daily Summary

Daily Weather History Graph

Daily Weather History Graph

Search for Another Location

Airport or City:

Astronomy

Oct. 23, 2019 Rise Set
Actual Time 7:08 AM EDT 5:47 PM EDT
Civil Twilight 6:38 AM EDT 6:16 PM EDT
Nautical Twilight 6:05 AM EDT 6:50 PM EDT
Astronomical Twilight 5:31 AM EDT 7:23 PM EDT
Moon 1:07 AM EDT (10/23) 3:49 PM EDT (10/23)
Length of Visible Light 11h 38m
Length of Day
10h 39m
Waning Crescent, 27% of the Moon is Illuminated
Oct 23
Waning Crescent
Oct 27
New
Nov 4
First Quarter
Nov 12
Full
Nov 19
Last Quarter

Hourly Weather History & Observations

Time (EDT) Temp. Windchill Dew Point Humidity Pressure Visibility Wind Dir Wind Speed Gust Speed Precip Events Conditions
12:47 AM 48.9 °F - 48.0 °F 97% 29.96 in 4.0 mi NNE 6.9 mph - 0.23 in Rain Rain
12:54 AM 48.9 °F - 48.0 °F 97% 29.96 in 4.0 mi NNE 6.9 mph - 0.24 in Rain Rain
1:18 AM 48.9 °F - 48.0 °F 97% 29.95 in 3.0 mi Variable 4.6 mph - 0.10 in Rain Heavy Rain
1:20 AM 48.9 °F - 48.0 °F 97% 29.95 in 2.5 mi NNW 6.9 mph - 0.12 in Rain Heavy Rain
1:27 AM 48.9 °F - 46.9 °F 93% 29.94 in 2.5 mi North 6.9 mph - 0.16 in Rain Heavy Rain
1:46 AM 48.9 °F - 46.9 °F 93% 29.94 in 3.0 mi North 5.8 mph - 0.25 in Rain Light Rain
1:54 AM 48.9 °F - 46.9 °F 93% 29.94 in 3.0 mi NNW 6.9 mph - 0.29 in Rain Rain
2:01 AM 48.9 °F - 46.9 °F 93% 29.94 in 2.5 mi NNW 5.8 mph - 0.03 in Rain Heavy Rain
2:10 AM 48.9 °F - 46.9 °F 93% 29.93 in 3.0 mi NNW 4.6 mph - 0.06 in Rain Rain
2:43 AM 48.9 °F - 46.9 °F 93% 29.92 in 4.0 mi Variable 4.6 mph - 0.13 in Rain Heavy Rain
2:54 AM 48.9 °F - 46.9 °F 93% 29.91 in 5.0 mi North 6.9 mph - 0.14 in Rain Rain
3:10 AM 48.9 °F - 46.9 °F 93% 29.90 in 5.0 mi North 5.8 mph - 0.04 in Rain Rain
3:54 AM 48.9 °F - 46.9 °F 93% 29.89 in 4.0 mi North 4.6 mph - 0.20 in Rain Heavy Rain
4:54 AM 48.9 °F - 46.9 °F 93% 29.85 in 5.0 mi North 5.8 mph - 0.10 in Rain Light Rain
5:54 AM 48.9 °F - 46.9 °F 93% 29.83 in 5.0 mi NNW 6.9 mph - 0.12 in Rain Light Rain
6:54 AM 48.9 °F - 46.9 °F 93% 29.81 in 3.0 mi North 8.1 mph - 0.06 in Rain Light Rain
6:57 AM 48.9 °F - 46.9 °F 93% 29.81 in 2.5 mi NNW 5.8 mph - 0.02 in Rain Heavy Rain
7:12 AM 48.9 °F - 48.0 °F 97% 29.81 in 6.0 mi Variable 3.5 mph - 0.04 in Rain Light Rain
7:20 AM 50.0 °F - 48.0 °F 93% 29.80 in 8.0 mi NW 5.8 mph - 0.04 in Rain Light Rain
7:44 AM 50.0 °F - 48.0 °F 93% 29.79 in 2.5 mi North 5.8 mph - 0.07 in Rain Rain
7:54 AM 50.0 °F - 48.0 °F 93% 29.81 in 2.0 mi Variable 3.5 mph - 0.09 in Rain Rain
8:00 AM 50.0 °F - 48.0 °F 93% 29.81 in 3.0 mi Calm Calm - 0.00 in Rain Light Rain
8:19 AM 50.0 °F - 48.0 °F 93% 29.81 in 2.0 mi Calm Calm - 0.06 in Rain Heavy Rain
8:25 AM 50.0 °F - 48.0 °F 93% 29.81 in 3.0 mi Calm Calm - 0.06 in Rain Light Rain
8:36 AM 50.0 °F - 48.9 °F 96% 29.78 in 4.0 mi NNW 4.6 mph - 0.08 in Rain Rain
8:54 AM 51.1 °F - 48.9 °F 92% 29.78 in 10.0 mi Variable 3.5 mph - 0.09 in Rain Light Rain
9:03 AM 51.1 °F - 48.9 °F 92% 29.78 in 10.0 mi Variable 3.5 mph - 0.00 in Rain Light Rain
9:54 AM 51.1 °F - 48.9 °F 92% 29.78 in 10.0 mi NNW 3.5 mph - 0.01 in Rain Light Rain
10:09 AM 51.1 °F - 48.9 °F 92% 29.78 in 10.0 mi Calm Calm - 0.00 in   Overcast
10:34 AM 52.0 °F - 50.0 °F 93% 29.77 in 10.0 mi WNW 4.6 mph - 0.00 in   Overcast
10:54 AM 54.0 °F - 50.0 °F 86% 29.76 in 10.0 mi Variable 3.5 mph - 0.00 in   Overcast
11:41 AM 55.9 °F - 51.1 °F 84% 29.76 in 10.0 mi WSW 3.5 mph - N/A   Overcast
11:54 AM 55.9 °F - 51.1 °F 84% 29.77 in 10.0 mi WSW 4.6 mph - N/A   Overcast
12:54 PM 61.0 °F - 52.0 °F 72% 29.75 in 10.0 mi Variable 6.9 mph - N/A   Mostly Cloudy
1:54 PM 62.1 °F - 42.1 °F 48% 29.76 in 10.0 mi West 13.8 mph 24.2 mph N/A   Clear
2:54 PM 63.0 °F - 42.1 °F 46% 29.78 in 10.0 mi West 9.2 mph 21.9 mph N/A   Partly Cloudy
3:54 PM 62.1 °F - 39.0 °F 43% 29.81 in 10.0 mi WNW 6.9 mph 17.3 mph N/A   Clear
4:54 PM 60.1 °F - 37.9 °F 44% 29.84 in 10.0 mi West 4.6 mph - N/A   Clear
5:54 PM 55.0 °F - 37.0 °F 51% 29.88 in 10.0 mi Variable 4.6 mph - N/A   Scattered Clouds
6:54 PM 52.0 °F - 37.9 °F 59% 29.92 in 10.0 mi Variable 3.5 mph - N/A   Scattered Clouds
7:54 PM 44.1 °F - 39.0 °F 82% 29.95 in 10.0 mi Calm Calm - N/A   Clear
8:54 PM 46.9 °F - 37.9 °F 71% 29.98 in 10.0 mi WSW 3.5 mph - N/A   Clear
9:54 PM 45.0 °F 43.5 °F 37.0 °F 74% 30.01 in 10.0 mi WSW 3.5 mph - N/A   Clear
10:54 PM 48.0 °F - 36.0 °F 63% 30.02 in 10.0 mi West 4.6 mph - N/A   Clear
11:54 PM 45.0 °F - 35.1 °F 68% 30.04 in 10.0 mi Calm Calm - N/A   Mostly Cloudy